GFSSW_prec_cloud_150.txt.gz
Cloud_Cover
13 97 98 100 100 100 17 58 7 36 20 1 0 0 0 0 4 3 0 0 0 0 3 5 0 11 100 100 100 100 100 92 100 100 100 96 27 99 100 100 100 100 100 100 8
100 66 33 76 100 35 100 96 16 6 29 30 5 0 0 6 73 56 22 0 0 0 0 0 0 1 5 69 100 100 100 100 100 100 87 99 71 100 100 100 76 100 100 53 2
100 100 100 97 100 100 100 100 100 92 52 16 10 9 2 1 23 48 100 64 4 0 0 0 0 0 0 8 10 100 100 100 100 100 100 100 100 100 100 80 65 25 50 5 5
14 5 45 6 5 40 100 100 100 100 100 10 18 2 0 0 3 5 84 100 5 0 0 0 0 0 0 1 0 4 100 88 100 100 100 100 100 100 100 100 100 96 71 40 76
53 5 15 11 100 100 100 100 100 100 100 92 24 6 1 0 0 4 5 98 100 37 3 2 0 0 0 0 0 0 33 98 91 79 100 100 100 100 100 100 91 52 37 20 5
5 6 57 98 100 100 100 100 100 100 85 100 93 17 30 29 0 0 5 52 78 100 98 41 2 0 0 0 0 0 0 34 11 5 42 76 24 29 89 81 72 55 79 14 16
7 63 100 100 100 100 100 100 100 99 95 16 78 14 87 57 30 5 23 10 100 100 100 100 98 6 0 0 0 2 0 1 0 5 0 13 44 97 83 30 68 82 5 50 39
9 100 100 100 95 74 89 80 98 100 100 41 72 76 55 48 100 100 100 100 16 98 100 95 96 100 5 1 0 0 0 0 0 1 4 20 1 98 100 93 44 37 0 3 0
45 66 49 38 96 56 48 85 100 86 7 21 61 43 100 88 78 100 83 100 100 100 100 100 100 81 42 55 0 0 0 0 0 0 0 9 46 5 57 38 8 1 0 0 0
80 100 100 100 100 100 88 100 99 85 100 100 100 44 93 100 100 100 100 94 81 67 93 100 100 18 40 99 1 5 0 0 3 5 0 2 49 5 60 70 3 5 0 0 0
39 50 48 5 5 84 100 100 100 100 100 100 100 88 64 8 100 100 100 100 100 79 6 100 100 98 26 65 5 5 1 0 0 3 5 2 4 2 5 66 5 0 0 0 0
5 35 12 5 81 99 100 37 39 93 100 100 100 84 97 6 97 100 94 99 100 100 32 52 100 15 99 5 5 5 5 1 0 5 5 0 0 0 1 6 5 0 0 0 0
20 100 86 65 100 100 59 52 100 100 100 100 100 90 100 70 57 100 31 93 90 100 100 100 75 10 9 61 27 5 5 3 3 2 5 5 5 1 0 3 4 0 0 0 0
53 81 47 100 80 48 32 87 88 33 100 100 41 97 100 100 100 100 92 99 49 100 100 100 100 70 2 28 5 5 5 4 5 5 0 5 36 0 0 0 0 0 0 0 0
36 24 100 99 84 84 59 70 20 6 6 34 34 34 100 100 100 100 100 100 100 100 99 100 100 100 100 100 4 86 5 5 5 5 4 2 100 0 0 0 0 0 0 0 0
100 100 98 80 100 97 100 100 82 100 78 83 5 5 99 100 100 100 100 100 100 100 100 100 100 100 100 100 70 61 42 5 5 80 26 14 70 7 0 0 0 0 0 0 0
5 25 87 100 100 100 100 100 77 88 98 100 100 97 34 100 100 100 100 100 100 100 86 100 100 100 100 100 100 100 93 9 74 7 22 5 36 7 5 0 0 0 0 0 0
8 27 100 100 100 97 100 100 93 79 100 100 100 100 87 94 100 100 100 100 100 100 100 100 100 100 100 100 100 99 12 6 20 69 44 21 91 9 5 5 0 0 0 0 0
7 15 98 91 52 5 62 33 100 100 100 100 100 100 100 100 74 100 98 100 100 100 100 100 100 100 100 100 99 100 10 79 6 100 100 99 7 36 65 5 5 2 2 0 0
100 100 11 3 0 3 25 15 6 100 100 100 100 100 100 100 100 100 100 75 100 100 100 100 100 100 100 100 100 89 100 40 12 99 93 100 64 43 71 54 5 10 21 4 0
31 11 67 0 37 33 76 14 22 64 83 81 100 66 100 100 100 100 100 100 100 100 100 94 55 100 100 100 100 100 100 100 96 5 97 100 100 100 100 100 50 5 5 5 0
68 28 3 5 5 81 69 95 1 0 0 0 0 0 0 100 100 100 100 100 100 100 100 86 5 10 100 100 100 100 100 87 10 79 100 100 100 100 100 100 100 6 5 5 1
18 91 3 5 89 8 15 55 100 90 6 36 7 5 0 0 0 0 73 100 35 99 100 100 100 100 100 100 95 100 100 100 38 5 11 64 100 100 100 100 100 100 41 5 5
6 44 48 67 6 33 12 4 3 0 57 42 96 29 2 5 4 4 0 5 14 99 100 100 100 100 100 100 6 42 100 100 100 24 43 78 100 100 100 100 98 99 54 21 5
7 24 5 84 31 30 74 16 5 5 15 5 55 100 89 44 9 20 43 37 4 5 74 100 100 100 100 86 100 11 46 100 100 67 4 99 65 100 100 100 81 99 82 96 10
18 90 66 91 9 94 98 100 38 5 100 8 66 66 100 100 95 100 5 4 0 0 0 1 8 100 98 100 100 93 7 85 91 100 6 51 100 100 100 100 100 100 38 100 70
6 5 79 90 68 85 39 4 2 5 8 4 100 59 100 88 65 51 100 11 4 0 0 2 5 19 32 100 100 100 5 77 62 97 100 48 100 100 100 100 100 100 100 96 100

GFSSW_prec_cloud_153.txt.gz
Cloud_Cover
100 100 100 100 99 29 41 100 100 100 100 100 12 6 5 7 1 0 0 88 26 0 0 0 0 0 0 19 100 100 100 98 100 89 95 97 100 100 100 100 39 100 100 100 100
91 77 38 12 5 5 22 64 100 100 100 100 100 88 8 15 20 3 0 0 100 46 0 0 0 0 0 0 0 5 100 100 100 94 47 99 100 100 100 99 75 100 100 100 100
0 0 0 1 1 1 6 41 91 100 100 100 100 99 24 11 90 26 0 0 1 83 60 3 0 0 0 0 0 3 2 25 100 100 100 100 100 100 100 68 91 100 100 100 71
0 0 0 0 3 1 5 100 100 100 100 100 100 100 8 5 3 60 1 0 0 3 94 66 3 6 0 0 0 0 0 0 99 100 79 98 100 100 100 44 100 100 92 92 15
0 0 4 5 5 8 77 100 100 100 100 100 100 100 100 96 5 0 5 2 0 5 3 93 97 26 5 4 0 0 0 0 0 78 100 100 100 100 100 100 100 100 100 100 100
0 0 5 1 5 9 100 100 100 84 100 100 100 100 100 100 62 2 0 46 4 2 5 5 94 99 7 49 2 0 0 0 0 0 19 58 100 100 100 100 100 100 100 100 75
3 5 5 5 73 42 87 96 86 65 99 97 100 100 100 11 69 5 5 5 2 41 11 2 33 100 17 69 5 0 0 0 0 0 0 0 0 0 17 49 95 100 74 74 27
5 13 65 11 19 53 100 100 100 100 100 100 100 100 100 97 96 5 66 6 93 30 5 5 14 78 87 100 80 4 0 0 0 0 0 0 0 0 0 2 5 56 100 100 100
25 5 5 91 99 100 100 100 100 100 100 100 100 100 100 100 100 97 36 6 5 82 98 28 5 100 96 49 100 33 4 0 0 0 0 0 0 0 0 0 1 5 98 100 95
13 24 7 65 5 35 42 100 92 100 100 100 100 100 100 91 100 100 100 75 5 9 36 100 100 100 74 63 99 100 10 1 0 0 0 0 0 0 0 4 5 5 21 65 32
3 1 4 5 5 12 22 85 97 98 99 69 24 100 22 5 78 90 100 100 100 6 100 5 44 100 13 100 100 100 96 7 5 2 0 0 0 0 0 3 5 23 5 5 5
100 100 100 14 63 92 100 100 23 85 100 88 74 95 3 4 42 17 96 100 24 64 85 40 66 67 5 100 100 100 58 28 60 23 3 0 0 0 1 5 4 1 21 11 5
100 17 70 100 44 99 93 100 91 100 100 100 76 24 94 78 5 62 33 100 100 32 100 100 100 100 68 85 100 100 99 5 24 9 8 5 4 0 4 3 2 2 5 2 5
64 9 13 6 63 99 100 100 7 100 54 100 100 91 85 77 6 27 5 98 44 91 100 80 100 100 100 42 84 100 53 81 100 5 94 67 23 0 1 0 2 0 1 5 5
5 5 5 15 5 23 86 100 52 64 72 72 17 5 5 76 100 56 99 100 95 100 100 100 100 100 66 79 8 100 72 92 92 45 92 27 98 100 0 0 0 5 0 3 5
11 5 20 5 40 100 100 100 29 49 38 92 85 100 66 5 54 80 100 100 100 100 100 100 100 100 100 100 98 100 98 92 49 5 95 20 91 100 3 1 3 5 5 0 0
100 97 100 100 100 100 100 100 98 52 99 100 100 100 100 100 100 84 100 100 100 100 100 100 100 100 100 100 96 100 100 95 9 58 100 49 26 100 94 5 3 5 10 3 0
100 100 100 100 100 100 100 100 74 94 100 100 100 100 100 41 74 100 43 92 100 100 100 100 100 100 100 100 100 100 98 54 16 99 100 100 94 100 99 53 39 5 54 17 3
100 100 100 100 100 100 100 100 100 100 78 50 77 100 75 0 56 100 100 86 100 100 100 100 100 100 100 100 100 100 100 100 47 8 70 100 100 100 71 74 21 12 22 10 5
88 90 87 68 100 100 100 100 26 16 13 16 5 2 7 4 36 30 52 86 100 100 100 100 100 100 100 100 100 100 100 100 77 33 98 100 100 100 100 100 32 73 57 7 5
64 63 6 36 67 14 30 7 2 0 0 41 94 0 0 0 0 9 66 47 93 100 100 100 100 100 100 100 100 100 100 100 100 100 89 100 100 100 100 100 100 97 89 8 5
98 45 58 4 49 77 14 9 5 1 0 5 5 5 5 0 0 0 0 0 7 100 100 100 100 46 100 100 100 100 100 100 100 100 46 100 100 100 100 100 100 100 100 100 5
99 84 86 14 60 21 33 20 4 4 4 1 5 8 5 7 54 0 0 0 2 80 100 100 100 100 100 100 100 100 100 100 100 98 15 10 100 100 100 100 100 100 100 100 70
96 66 4 27 37 69 90 34 5 1 3 3 2 4 98 32 67 86 5 2 5 16 81 100 100 100 100 100 100 100 100 100 100 29 80 92 100 100 100 100 100 100 100 100 100
2 44 74 44 6 5 27 21 84 100 47 67 98 98 82 97 97 82 44 5 3 10 99 45 94 100 100 100 100 100 100 100 92 100 90 100 100 100 100 100 100 29 100 100 100
7 72 70 89 6 66 14 5 32 20 86 64 95 66 100 83 93 100 100 24 49 5 0 0 2 15 79 100 100 100 100 100 67 91 52 100 100 100 100 100 100 96 100 100 100
26 23 88 12 76 73 50 29 5 95 10 14 94 46 45 100 100 100 100 98 37 92 27 5 4 5 4 56 100 96 35 100 100 6 92 98 100 100 100 100 100 100 100 79 100

GFSSW_prec_cloud_159.txt.gz
Cloud_Cover
0 0 0 0 0 0 0 0 0 0 0 0 4 93 100 96 4 0 0 4 4 0 0 0 0 0 0 0 0 0 0 0 0 0 4 4 0 4 5 31 75 98 100 100 100
0 0 0 0 0 0 0 0 0 0 0 0 1 12 72 100 83 5 1 0 27 100 5 0 0 0 0 0 0 0 0 0 0 0 0 0 5 2 5 43 90 16 55 100 100
0 0 0 0 0 0 5 0 0 4 2 4 7 5 4 6 5 50 0 4 1 0 47 96 8 0 0 0 0 0 0 0 0 0 0 0 0 39 64 90 6 66 80 100 100
0 0 0 0 0 0 0 0 2 5 5 42 5 5 5 7 8 5 26 5 3 2 3 4 99 56 1 3 0 0 0 0 0 0 0 0 0 0 3 3 33 26 8 34 100
0 0 0 0 0 0 0 2 5 5 5 5 5 6 22 61 61 53 29 5 5 2 0 0 3 37 97 4 27 6 3 4 0 0 0 0 0 0 0 21 99 91 48 43 100
0 0 0 0 0 1 5 5 23 31 92 89 35 16 100 82 99 24 5 20 9 5 8 46 1 3 2 9 4 27 30 4 4 5 0 0 0 0 0 0 64 85 99 95 94
0 0 3 5 4 5 5 5 14 6 5 16 17 51 6 5 2 41 100 97 56 10 6 5 7 22 5 5 4 5 18 5 5 8 4 4 0 0 4 0 0 5 100 100 100
0 3 5 5 5 12 5 97 100 20 12 99 66 62 100 100 100 100 45 100 80 22 88 83 21 7 14 5 15 0 6 73 8 49 6 5 1 5 0 0 0 0 0 0 95
0 3 5 5 7 99 100 100 100 96 82 100 99 100 100 100 100 100 100 93 68 100 100 70 64 100 52 3 0 2 5 5 5 27 92 14 12 5 8 0 0 2 3 0 4
19 94 13 73 100 93 100 100 99 100 100 100 100 100 100 100 100 100 100 100 100 98 100 62 67 96 6 20 15 2 5 5 17 12 80 27 80 5 70 2 0 0 0 0 0
5 7 66 5 5 5 5 29 46 95 70 87 40 90 88 81 100 34 34 100 82 99 88 79 46 100 63 5 5 5 5 9 14 3 97 18 100 24 17 99 5 0 5 0 0
2 3 5 16 5 5 5 5 6 83 70 63 97 9 5 5 63 88 97 87 99 100 100 54 100 100 100 57 3 5 4 5 5 47 41 56 100 100 17 100 48 5 5 1 5
1 3 3 5 6 5 11 45 94 95 78 100 74 78 74 94 99 100 100 82 100 100 100 66 19 100 100 82 63 5 3 5 6 26 6 99 100 100 61 65 62 29 5 5 5
5 5 5 5 5 5 5 78 88 55 57 100 100 100 100 100 100 100 100 100 100 100 100 99 100 100 94 100 100 9 31 5 2 2 5 42 100 100 88 6 32 96 6 5 5
5 5 5 5 10 22 86 6 99 82 89 100 100 100 100 100 93 100 100 100 100 100 100 100 100 61 69 100 100 5 17 5 0 5 5 100 99 100 94 2 5 28 91 13 5
6 5 5 5 22 99 100 100 100 100 100 100 100 26 53 100 100 100 100 100 100 100 100 100 100 100 100 100 100 100 100 99 60 43 0 100 100 100 100 3 4 99 41 11 5
5 5 37 32 86 98 100 100 100 100 100 100 100 96 61 74 73 63 100 6 5 0 2 39 26 90 100 100 100 100 100 97 100 73 16 100 100 100 100 70 4 58 76 58 26
92 82 46 71 99 100 100 100 100 100 100 100 100 94 61 69 31 5 4 0 4 0 0 0 0 1 99 100 100 100 100 84 100 60 46 100 100 100 100 100 8 100 100 57 55
73 78 86 100 100 100 100 100 97 82 95 37 10 18 4 3 3 4 5 92 7 5 1 5 0 0 0 100 54 95 100 100 100 100 40 100 100 100 100 100 100 100 11 36 60
79 100 100 93 100 100 99 100 89 84 99 95 76 90 94 68 2 0 0 3 94 45 96 75 68 0 0 8 46 6 100 100 100 100 100 98 100 100 100 100 100 100 100 97 75
100 100 100 100 100 100 100 86 100 76 78 53 86 56 15 1 0 0 0 0 4 63 100 90 80 9 87 65 5 5 99 100 100 100 87 86 100 100 100 100 100 100 100 100 71
100 85 100 88 100 93 72 93 9 5 6 64 5 1 4 4 2 5 0 0 0 0 76 100 93 35 26 100 100 100 62 100 100 55 79 100 100 100 100 100 100 100 100 88 58
99 82 97 77 100 100 45 100 91 97 97 62 100 100 2 5 72 4 4 5 0 0 46 69 100 100 66 78 100 100 81 100 100 100 95 100 100 100 100 100 100 100 100 67 16
100 80 92 86 81 61 97 100 100 96 55 0 10 32 24 5 10 76 6 8 2 2 2 100 75 97 100 100 100 100 100 100 100 100 56 71 100 100 100 100 100 100 100 74 5
100 94 13 5 92 100 60 20 5 4 1 0 2 0 34 82 83 51 99 100 77 1 5 33 78 78 5 69 100 98 100 100 100 100 100 97 100 100 100 100 100 100 100 100 90
100 100 24 81 25 77 35 5 5 3 5 4 5 5 5 42 91 99 100 89 10 5 5 79 66 10 5 0 24 100 99 100 100 100 100 97 90 100 100 100 100 100 100 100 100
99 55 89 32 42 66 27 5 4 3 0 0 0 55 5 9 100 92 29 17 5 12 5 91 100 96 19 0 4 93 100 100 100 100 100 97 97 100 100 100 100 100 100 100 100

GFSSW_prec_cloud_162.txt.gz
Cloud_Cover
1 0 0 0 0 0 0 0 0 0 0 0 0 0 5 23 5 6 3 3 0 0 1 0 0 0 0 0 0 0 0 0 0 0 0 0 0 0 0 0 3 5 5 20 10
0 0 0 0 0 0 0 0 0 0 0 0 0 1 0 6 3 3 5 5 5 3 5 5 1 0 0 0 0 0 0 0 0 0 0 0 0 0 0 0 5 5 5 49 98
0 0 0 0 0 0 0 0 0 0 0 2 5 5 2 0 5 4 54 89 68 21 17 4 3 5 2 0 0 0 1 0 0 0 0 0 0 0 0 0 0 21 69 98 43
0 0 0 0 0 0 0 0 0 0 0 5 5 5 5 5 10 14 9 18 96 100 100 98 47 33 10 5 0 0 5 5 1 0 0 0 4 1 0 0 0 5 22 61 6
0 0 0 0 0 0 0 0 1 5 3 3 5 3 4 6 1 0 85 94 62 88 98 100 76 19 5 8 30 0 4 2 5 5 1 0 0 75 2 0 0 0 0 13 94
0 0 0 0 0 0 0 0 1 16 5 100 100 100 95 100 91 82 66 100 97 36 100 100 94 88 5 11 15 5 0 4 2 23 12 5 2 5 0 2 0 0 0 4 41
0 0 0 0 4 6 50 53 6 25 93 91 100 100 96 95 46 100 100 100 100 100 100 100 100 97 67 21 5 42 14 0 2 5 46 12 6 22 1 5 0 0 0 0 6
0 1 5 5 95 79 100 98 100 100 98 100 97 18 54 14 5 6 13 29 100 34 53 20 94 100 98 46 86 27 5 5 5 2 13 5 12 29 15 5 5 0 0 0 0
3 5 5 65 19 10 11 5 5 6 5 4 22 15 5 5 5 5 42 10 58 93 86 5 32 52 100 92 73 8 5 4 4 0 4 5 14 40 100 32 67 11 0 0 0
5 20 24 67 15 46 45 5 26 15 5 5 5 5 25 56 3 5 17 5 35 9 47 41 82 98 100 80 46 82 67 47 8 0 0 5 5 13 69 100 100 60 4 2 0
5 5 5 5 5 5 5 19 5 5 5 6 7 8 98 16 100 54 20 84 100 100 68 5 5 98 100 100 100 94 56 90 86 0 5 5 85 5 5 100 100 23 34 5 1
3 5 5 5 5 6 59 5 5 5 5 5 23 93 100 90 100 97 100 100 100 100 100 100 50 100 100 100 100 100 77 90 100 1 4 4 43 25 4 61 87 76 87 78 5
5 5 4 5 12 86 84 23 5 3 4 5 34 98 100 100 100 100 100 100 100 100 100 100 100 100 100 100 100 100 45 30 9 9 0 0 5 5 5 80 27 96 78 100 64
5 5 0 5 6 5 5 5 5 5 2 7 100 100 98 100 100 100 100 100 100 100 100 100 100 100 100 100 100 100 92 5 5 5 0 0 2 9 98 49 6 93 99 100 99
8 5 2 5 11 54 1 0 5 2 2 45 100 100 100 100 100 100 100 100 100 100 100 100 98 100 92 100 99 75 68 49 7 5 5 4 0 5 100 95 12 59 97 100 100
100 7 61 20 7 5 0 0 0 2 4 3 69 100 100 100 100 100 100 100 92 28 5 82 37 20 6 33 10 55 65 96 100 58 3 40 5 0 84 100 9 94 100 100 100
87 8 15 5 11 5 5 2 5 5 5 72 87 100 100 100 100 100 100 52 60 8 36 26 5 5 4 0 0 0 81 100 98 100 51 76 75 17 100 100 95 9 100 99 98
49 91 74 11 35 8 5 65 5 10 70 6 82 100 100 100 62 20 97 92 79 56 82 96 82 72 0 1 0 0 0 35 100 92 100 100 59 100 100 100 100 5 89 100 100
100 100 98 86 97 97 82 57 7 5 23 29 94 4 4 5 5 16 61 98 89 76 100 38 0 13 0 0 8 50 22 3 70 100 66 96 52 100 100 100 100 100 58 100 100
100 100 100 100 100 100 97 88 82 100 93 26 16 5 41 5 5 5 5 20 37 72 93 62 6 0 3 5 13 97 84 28 83 91 99 68 96 100 100 100 100 100 100 100 100
100 100 100 100 100 100 100 100 90 79 36 60 39 65 90 100 93 5 52 6 57 100 95 100 100 6 4 4 31 100 100 100 77 27 99 98 74 100 100 100 100 100 100 100 100
100 100 100 100 100 100 100 100 89 99 100 84 4 5 1 72 27 5 100 100 79 2 0 52 88 70 86 88 96 6 99 95 11 6 56 100 100 100 100 100 100 100 100 100 100
100 100 100 100 100 100 100 100 100 100 100 100 39 4 0 5 52 42 19 64 2 47 32 5 3 26 5 55 79 96 100 100 100 100 96 100 96 100 100 100 100 100 100 100 100
100 84 100 98 76 100 100 100 100 56 91 100 84 5 5 5 31 88 89 100 58 5 5 23 55 68 25 33 100 100 100 100 100 100 62 88 100 100 100 100 100 100 100 100 100
100 99 100 100 100 100 100 5 2 5 2 10 0 0 74 77 91 100 100 98 5 5 5 12 49 11 61 89 74 100 100 100 100 100 100 99 94 100 100 100 100 100 100 100 100
100 100 100 100 100 100 76 3 0 97 43 0 0 3 5 5 64 100 12 16 97 5 32 7 54 30 5 9 97 80 98 100 100 100 100 100 90 100 100 100 100 100 100 100 100
100 100 100 100 100 87 64 58 0 5 82 0 4 5 5 1 5 12 35 63 100 96 10 99 100 32 14 8 5 4 2 22 100 100 100 100 99 100 100 100 100 100 100 100 100